GFSNGP_850_thetae_057.txt.gz
Theta_e
309 309 310 312 313 316 317 322 326 328 330 331 332 332 331 331 330 330 330 333 342 344 344 345 346 346 347 346 345 345 346 346 346 345 346 346 346 345 344 343 343 344 344 343
309 309 311 312 313 314 316 318 320 322 325 325 330 335 335 337 339 340 340 340 335 344 345 344 344 344 344 346 345 344 345 345 345 346 346 346 346 346 345 344 344 344 344 344
308 313 314 316 315 316 318 320 320 325 326 328 333 337 333 332 332 335 338 340 342 336 344 340 341 342 343 344 345 345 345 345 345 345 346 346 346 345 345 344 344 344 344 345
309 310 317 317 320 320 321 320 320 322 324 328 337 334 330 328 328 330 333 336 339 340 335 341 341 346 345 346 345 345 345 345 345 345 345 346 346 346 345 345 344 344 344 344
309 315 319 322 320 321 323 321 317 318 319 320 325 334 334 324 324 327 333 338 341 340 335 332 342 344 344 345 345 345 345 345 345 345 345 346 346 346 345 345 344 343 343 343
309 315 322 319 315 314 318 325 315 316 318 319 331 340 330 322 324 331 336 340 345 341 338 333 339 345 344 344 345 344 344 345 345 343 343 343 343 344 344 344 343 343 341 339
310 312 315 311 310 313 325 322 314 315 315 317 321 320 319 322 327 332 336 341 349 342 346 340 343 346 344 345 344 344 345 345 342 342 344 344 346 347 347 346 346 345 345 344
310 313 315 308 310 318 315 313 313 314 315 315 316 317 317 319 322 327 333 338 346 348 346 346 344 344 344 344 345 346 346 346 344 345 346 347 348 348 348 348 348 349 349 350
314 314 309 309 310 311 313 313 312 314 315 314 314 315 317 317 318 318 319 328 335 343 347 347 346 347 346 346 346 346 346 346 346 347 348 348 348 349 350 350 350 350 351 351
308 310 310 311 312 313 314 313 312 314 314 315 314 314 314 317 317 317 316 316 320 344 349 349 347 346 347 346 346 346 347 347 348 348 349 349 349 350 350 350 351 352 355 355
309 310 309 309 312 313 315 314 314 314 314 314 316 316 314 314 316 316 316 315 315 315 318 340 347 350 354 352 349 349 348 348 349 349 350 351 351 354 352 353 355 355 355 357
311 311 313 309 309 310 313 315 315 314 314 315 316 317 315 315 313 314 314 314 314 314 315 316 332 344 344 343 348 356 355 353 353 354 353 353 354 354 354 354 354 352 355 357
309 309 309 309 308 308 309 310 310 311 312 312 314 314 315 315 314 314 313 313 312 312 313 314 315 316 334 343 340 341 343 342 347 352 356 353 344 347 345 344 347 350 354 355
308 308 309 308 307 306 307 307 308 308 309 309 311 313 314 315 315 315 314 314 313 313 312 312 312 313 314 318 335 338 338 337 334 336 341 352 350 350 349 350 352 352 350 349
307 306 306 306 306 306 306 307 307 308 309 310 312 312 313 314 315 315 316 315 315 314 314 313 313 312 312 314 315 322 338 340 344 347 349 351 349 348 350 353 357 357 356 356
306 305 305 305 305 304 304 304 305 306 310 311 312 314 314 313 314 315 315 315 315 315 315 314 313 313 313 313 313 316 324 339 339 340 344 348 348 346 349 352 355 358 358 357
306 305 305 304 304 304 304 304 304 304 305 308 311 313 314 315 314 315 315 315 315 315 315 315 314 314 313 313 313 314 317 328 338 335 334 338 337 341 345 350 354 356 357 357
305 305 305 304 303 303 303 303 304 304 304 305 308 311 311 310 310 311 312 313 314 315 315 315 315 315 315 314 314 314 314 317 324 337 337 336 331 335 335 337 342 347 352 355
307 305 304 304 303 302 302 303 303 303 305 305 306 306 307 308 308 307 309 311 312 312 312 315 316 316 317 316 316 315 314 317 322 326 335 339 335 339 336 337 337 340 341 350
307 307 306 305 304 304 303 301 302 302 301 302 304 305 305 305 306 307 307 307 308 308 311 312 314 316 317 318 318 319 318 319 327 331 335 337 339 340 340 340 340 339 341 343
305 306 306 305 305 304 303 303 301 302 301 302 301 301 302 304 305 306 306 307 307 307 308 310 309 310 311 314 319 318 321 325 328 329 330 334 337 339 342 342 341 342 344 344
304 305 306 305 303 303 301 300 301 300 301 301 301 300 301 301 301 303 304 305 306 306 305 306 307 308 310 313 316 320 322 322 326 327 329 333 335 337 338 339 338 338 338 339
304 303 305 304 303 300 301 300 299 300 301 301 300 301 301 302 302 302 301 302 304 305 305 304 304 305 305 307 310 313 318 318 319 320 322 325 326 327 327 329 330 330 329 329
303 301 302 302 300 300 300 300 299 299 300 299 299 300 300 302 301 302 302 300 301 303 303 304 303 303 303 302 302 303 303 304 305 304 306 309 309 310 311 311 312 314 313 313
302 301 301 301 300 300 299 299 300 299 299 299 299 299 300 300 301 302 302 301 300 300 301 302 303 302 302 302 302 301 300 301 301 301 302 302 302 302 302 302 302 303 303 303
301 301 301 300 300 299 299 300 300 300 300 299 299 299 299 299 300 301 301 301 300 299 298 298 298 299 299 298 298 298 299 299 300 300 300 300 301 301 301 302 302 303 302 302
301 301 300 300 299 299 299 300 300 299 299 299 300 299 299 300 300 301 301 301 300 300 299 298 298 297 297 297 297 297 296 296 296 296 296 296 297 299 299 300 302 301 301 301

GFSNGP_850_thetae_060.txt.gz
Theta_e
312 311 311 312 314 317 320 325 328 329 330 332 331 330 331 331 335 334 332 336 341 346 348 350 352 352 352 352 351 350 350 350 350 341 341 341 342 343 344 344 344 344 344 343
311 310 310 310 312 314 316 321 323 325 328 330 332 332 336 335 339 339 339 339 337 343 346 349 351 353 354 352 352 351 351 350 350 344 343 343 343 344 344 345 345 345 344 343
311 310 311 313 315 317 318 320 322 325 327 329 331 333 337 336 336 336 337 339 342 343 342 345 349 351 353 353 352 352 351 350 349 347 346 345 344 345 345 345 345 344 344 344
311 311 311 311 314 317 319 320 322 323 325 328 331 336 336 335 335 336 338 339 340 341 343 343 345 346 352 353 353 352 352 350 348 345 346 346 346 345 346 346 346 345 344 344
311 311 311 315 320 320 321 321 323 325 325 326 327 337 339 334 333 335 339 341 342 343 344 346 345 346 349 352 354 353 352 347 345 345 345 346 347 346 346 346 346 345 344 344
311 312 315 318 315 314 318 328 322 322 325 326 328 335 336 328 329 335 339 342 345 347 349 349 349 345 347 351 352 353 351 346 347 346 346 346 347 346 346 346 345 346 346 344
312 312 313 315 313 313 324 324 320 321 322 325 332 329 324 321 324 327 331 338 345 352 353 351 351 345 347 351 351 351 354 354 353 350 346 346 346 346 346 346 348 345 345 343
312 313 314 313 314 315 314 315 315 317 319 320 322 320 319 319 321 323 325 329 344 354 352 350 346 343 349 351 352 354 354 354 354 349 351 353 346 346 347 347 346 348 345 347
312 314 312 311 311 311 311 314 315 314 317 317 318 317 317 318 319 319 321 323 330 346 353 354 351 351 354 352 353 355 356 356 355 349 353 352 346 347 348 347 356 356 358 358
309 312 310 311 311 313 314 315 315 315 316 316 318 318 317 316 317 315 315 315 320 325 342 352 355 355 355 355 356 356 357 358 358 352 355 357 358 358 358 358 358 358 359 359
307 308 309 310 310 312 314 316 316 316 317 317 318 318 317 316 314 314 313 314 314 319 325 333 342 350 353 357 357 357 358 359 359 359 358 359 359 360 360 359 360 360 360 360
310 308 309 309 308 308 310 311 311 312 313 314 314 315 316 316 315 314 314 314 315 315 318 323 328 339 350 355 357 356 357 357 357 358 360 359 360 360 359 360 359 360 360 361
307 309 306 307 306 307 308 310 309 309 309 310 312 314 315 316 316 317 318 316 316 317 315 320 317 324 336 346 353 354 356 357 359 360 358 359 360 361 358 356 356 356 357 360
306 306 306 305 305 306 306 308 308 308 308 310 313 313 314 315 317 318 319 318 316 316 316 317 317 315 319 332 339 344 342 346 342 346 349 348 350 348 350 353 355 356 353 354
306 305 305 304 305 305 306 307 307 306 307 309 313 314 313 314 318 319 318 317 318 316 315 316 317 314 315 318 329 339 342 340 341 348 348 334 333 332 334 335 333 338 359 354
306 305 304 303 304 305 304 306 306 305 306 308 310 314 315 316 315 315 314 316 315 315 315 315 315 314 314 315 319 328 335 340 343 345 337 337 339 335 340 338 335 337 355 356
307 306 305 304 303 304 304 304 304 304 305 306 307 309 312 311 312 313 312 313 313 314 315 315 316 315 315 318 318 323 327 333 339 344 346 347 347 338 345 350 348 352 355 357
308 307 306 305 305 303 304 304 303 303 304 306 306 306 307 307 307 310 311 311 311 313 314 315 316 317 316 316 315 316 324 326 332 338 343 344 342 342 344 347 350 354 355 354
308 307 306 306 306 305 304 303 304 304 302 303 305 305 305 306 306 306 308 309 309 309 311 313 315 316 317 318 316 316 323 319 325 331 335 340 343 340 341 342 343 346 346 344
307 307 307 306 306 305 305 304 303 304 305 306 304 303 304 305 306 306 306 306 306 306 307 310 312 313 314 316 319 319 318 321 318 330 334 334 337 338 341 342 342 343 342 342
305 307 307 306 305 304 303 304 304 304 304 304 305 305 305 303 304 305 305 305 305 305 305 306 307 309 311 313 315 319 320 319 321 324 328 332 334 338 338 336 338 340 339 337
305 305 306 305 304 303 303 302 303 304 303 303 304 304 305 304 304 303 303 304 304 304 304 304 304 305 308 311 313 315 318 319 320 323 325 327 330 332 334 335 336 338 338 337
305 304 305 305 303 303 302 302 302 302 302 303 303 303 304 304 304 303 302 302 303 303 303 303 304 304 305 305 305 306 308 310 312 315 317 319 321 324 326 327 327 329 329 328
305 303 303 304 303 302 302 302 302 302 302 302 302 302 302 303 303 303 302 301 301 301 301 302 303 303 304 303 303 303 302 303 303 304 305 307 308 310 312 313 316 316 315 314
304 304 303 303 303 302 302 302 302 302 302 301 301 302 302 302 302 302 302 300 299 300 300 300 299 300 299 300 300 301 301 301 301 301 301 301 302 302 303 304 304 304 305 305
304 303 303 302 302 301 302 302 301 301 302 302 301 301 302 303 302 302 301 301 300 300 300 300 300 300 299 299 299 299 298 297 298 298 300 301 301 301 301 301 302 302 302 303
303 302 302 302 301 301 301 301 301 300 300 301 302 301 302 302 302 302 302 301 301 301 300 300 299 299 299 298 298 298 298 297 295 295 296 297 298 298 299 299 298 299 298 297

GFSNGP_850_thetae_063.txt.gz
Theta_e
314 315 315 315 317 321 323 327 330 329 331 332 332 332 333 334 334 336 337 338 339 341 346 350 352 354 354 353 351 351 350 350 351 353 352 351 346 347 340 341 341 342 344 345
316 315 314 314 315 316 320 323 325 327 330 331 330 330 331 333 335 340 340 337 338 343 346 349 352 355 355 354 353 351 351 350 350 352 353 350 350 346 344 341 341 342 344 344
315 314 314 314 314 314 316 319 321 324 328 329 330 332 335 335 338 339 339 340 342 342 344 347 351 354 355 355 354 353 353 352 351 351 349 349 346 345 341 341 341 343 344 344
317 314 315 315 314 316 317 317 319 321 323 326 327 328 330 339 339 339 339 340 341 341 342 345 348 350 354 356 355 355 353 356 353 353 352 348 349 344 340 340 342 343 344 344
314 314 313 314 320 322 323 324 319 321 323 324 324 325 329 338 338 338 341 343 344 344 344 344 345 347 349 354 358 355 357 354 357 355 356 353 348 346 345 344 344 344 345 345
312 313 314 315 319 317 321 325 326 322 324 326 326 329 330 331 332 335 337 340 343 347 348 349 349 348 347 351 354 357 357 357 357 357 358 358 354 349 345 345 345 346 348 347
313 314 313 313 316 315 323 323 320 321 323 326 329 330 327 328 330 332 334 335 335 344 354 355 354 351 348 348 352 355 357 359 359 358 358 359 359 358 351 348 357 352 356 352
315 314 314 316 316 316 319 316 317 319 320 321 322 323 322 325 325 325 330 332 332 338 354 361 356 355 354 348 352 354 356 358 359 359 358 359 358 358 357 354 354 357 353 357
314 313 314 314 313 314 314 315 314 318 317 318 320 320 319 320 321 321 324 328 329 333 343 356 358 353 354 352 355 354 355 357 358 359 360 359 359 359 361 358 358 359 361 359
312 312 311 308 311 311 312 315 314 317 317 318 318 320 318 318 318 319 321 325 326 330 337 351 355 357 356 359 357 357 356 358 358 359 359 359 361 362 361 360 360 359 359 359
310 308 306 307 309 308 310 313 315 316 316 316 317 318 318 318 318 320 322 322 319 323 328 336 347 355 357 357 358 358 358 359 359 360 360 358 360 360 360 358 358 357 354 353
309 306 306 308 306 306 308 310 311 312 312 313 314 314 316 318 319 319 321 320 315 316 320 324 337 347 355 356 358 358 358 359 360 360 361 360 360 359 358 359 358 359 359 359
306 306 305 304 305 305 306 309 309 310 310 310 311 312 314 317 319 319 318 318 316 316 316 318 322 336 349 352 356 357 358 360 360 360 360 360 360 361 360 361 360 360 360 360
306 305 304 303 304 303 306 306 308 308 310 311 313 315 314 317 321 320 318 319 318 317 316 315 315 319 335 341 346 355 358 360 360 360 361 360 361 361 361 361 360 359 358 358
306 305 304 303 304 303 303 304 306 306 307 311 314 314 316 316 317 316 317 317 316 316 316 315 315 316 320 331 333 340 347 351 354 353 360 362 362 361 360 361 359 354 352 345
307 307 306 304 304 305 303 303 304 305 306 308 312 312 312 313 313 313 313 314 315 315 315 316 316 317 316 320 330 335 339 343 348 351 344 346 345 341 344 337 338 339 336 335
308 307 307 306 305 304 305 304 302 304 305 306 307 308 309 308 310 310 310 310 311 313 313 314 316 317 317 316 317 328 331 336 341 341 340 342 344 342 345 346 349 340 335 335
309 308 308 307 306 306 305 304 306 305 303 305 306 307 306 307 307 308 308 309 309 310 311 312 314 317 317 319 316 320 326 329 335 339 345 344 347 347 341 340 341 348 353 337
309 308 308 307 306 306 306 305 306 306 306 305 304 305 306 306 306 306 306 306 307 307 308 311 311 313 317 318 319 322 324 324 328 333 336 338 344 344 343 345 346 346 350 352
307 308 308 307 306 305 305 305 305 305 305 306 307 305 304 305 305 305 305 305 305 305 305 307 308 312 313 315 318 321 323 324 318 326 334 334 337 340 342 342 345 345 345 345
307 308 307 307 305 305 305 305 306 305 305 305 305 306 305 304 304 304 304 304 304 304 304 305 307 309 311 313 315 318 319 319 319 320 319 333 335 337 338 340 342 343 342 341
307 306 307 306 305 305 304 305 304 305 305 305 305 306 306 305 304 303 302 302 303 303 303 303 303 306 308 311 312 314 317 318 318 320 321 321 326 330 333 335 336 335 336 337
307 305 305 305 305 305 304 304 304 304 305 304 304 305 305 305 304 303 302 301 301 302 301 302 302 302 303 306 307 308 309 311 312 314 317 319 321 323 324 326 328 327 328 330
307 305 304 305 305 304 304 304 304 304 304 304 304 305 304 303 303 302 302 302 301 301 301 301 301 301 301 301 301 303 304 305 306 307 308 309 311 311 312 312 313 314 316 317
307 306 305 304 305 304 304 304 304 303 304 304 304 304 304 304 303 302 302 301 301 302 302 301 301 302 302 302 301 300 301 302 302 303 303 304 304 305 305 306 307 308 308 307
307 305 305 304 303 303 303 303 303 302 303 304 303 304 304 304 303 303 302 302 302 302 302 301 301 301 301 300 301 300 299 299 299 298 298 299 300 301 301 301 302 302 302 302
305 303 304 304 304 303 302 302 302 302 302 304 303 304 304 304 303 303 303 302 302 302 302 301 300 300 300 300 299 299 299 299 298 299 299 297 297 297 297 297 298 297 296 296

GFSNGP_850_thetae_069.txt.gz
Theta_e
311 312 313 313 315 316 316 315 316 317 318 319 329 329 331 333 339 342 345 344 345 341 343 343 345 350 352 353 352 353 354 354 353 352 351 350 346 339 332 329 329 332 336 342
315 314 313 313 314 315 316 316 316 316 317 319 320 328 329 331 334 335 340 344 346 346 344 349 345 348 348 353 354 353 355 356 356 355 354 353 352 348 342 336 332 332 333 335
314 314 314 314 313 314 314 315 316 315 315 317 318 320 332 337 334 336 336 338 339 341 348 347 342 342 344 346 354 354 354 355 356 356 356 355 355 354 351 346 341 339 337 333
313 314 314 312 313 314 314 315 322 324 320 325 326 327 331 334 334 333 332 335 337 337 338 345 343 342 349 351 355 354 355 354 354 355 355 354 354 355 355 352 348 345 342 339
313 313 312 312 311 318 319 319 320 320 321 321 324 326 328 327 331 331 331 332 334 335 335 339 348 349 346 343 351 355 355 354 353 353 354 354 354 354 354 355 353 351 350 347
313 314 315 316 316 316 316 317 317 316 318 319 321 326 324 325 328 327 327 327 330 332 333 333 338 350 349 340 347 347 354 357 352 352 353 353 352 353 353 352 353 353 352 350
313 315 314 315 315 315 316 316 316 315 316 317 319 320 320 322 323 324 325 326 328 330 330 332 335 340 351 339 339 343 352 358 355 353 353 353 353 352 352 353 352 353 352 352
314 314 314 313 315 316 314 313 312 313 314 315 317 318 320 321 321 322 323 325 326 327 328 330 335 337 344 344 350 355 351 356 358 357 354 355 355 353 353 353 353 353 353 352
313 315 310 309 311 311 310 309 310 311 312 316 317 317 319 320 321 321 322 324 324 324 325 328 335 338 340 346 350 355 355 350 358 358 358 357 357 356 354 354 354 354 355 354
307 309 306 308 306 307 306 306 307 309 311 313 316 317 318 317 319 320 321 322 323 323 320 321 330 337 341 343 350 353 354 355 351 359 359 359 359 358 357 357 357 357 357 357
307 306 305 306 305 305 305 305 306 307 310 312 313 315 316 317 317 318 319 322 321 321 321 317 321 328 337 341 347 353 354 357 358 354 361 360 361 361 360 359 359 359 359 359
306 305 305 304 304 305 304 304 305 307 308 310 311 312 313 315 315 317 320 321 320 321 318 317 318 321 330 337 343 351 355 359 358 354 360 360 361 361 362 363 362 362 361 360
306 304 304 304 305 304 304 303 304 305 307 308 309 311 312 313 315 316 318 319 318 319 317 316 317 318 323 331 336 348 355 360 363 365 363 361 361 362 362 362 361 362 363 363
306 306 305 304 304 304 304 304 303 304 306 307 309 311 314 316 315 317 317 317 317 317 316 315 316 317 320 327 332 339 349 354 358 360 362 362 362 361 360 360 360 364 362 363
308 308 306 305 306 305 304 305 303 303 304 306 309 310 311 313 314 314 315 315 314 314 314 315 316 317 319 323 328 333 342 350 353 356 360 361 361 361 358 358 359 359 363 361
309 307 307 306 307 307 306 305 305 303 302 305 306 308 308 308 309 310 311 311 313 312 312 313 315 316 317 318 324 330 334 338 347 352 355 354 356 361 363 360 361 361 361 361
309 309 308 308 308 307 306 305 305 304 303 303 303 306 306 306 306 307 307 307 309 310 309 310 314 313 315 317 320 327 330 334 339 345 350 354 355 359 359 358 359 359 357 357
311 310 310 308 308 307 307 306 305 305 305 304 303 303 303 305 305 305 305 306 307 308 310 310 311 311 314 318 321 324 327 331 334 339 344 347 348 349 350 350 350 349 348 341
311 309 309 308 307 306 307 307 306 305 305 305 304 303 302 302 304 304 304 304 304 305 307 309 310 311 313 316 320 322 323 323 331 333 334 342 342 345 344 345 342 339 342 341
309 310 309 308 307 306 307 307 306 306 305 306 306 304 303 302 302 303 303 303 303 303 303 305 308 311 312 313 316 319 321 320 321 328 332 328 332 334 341 341 341 341 341 341
310 309 309 307 306 306 306 306 306 307 306 307 306 305 304 303 302 302 302 302 302 302 302 303 304 308 310 311 313 315 315 318 320 321 324 323 331 323 335 334 332 335 339 341
310 308 308 307 307 306 306 306 306 306 306 306 306 304 304 303 303 301 301 302 302 302 302 302 303 303 304 307 311 311 312 314 314 314 317 319 319 323 326 324 326 328 331 330
308 307 308 307 307 306 307 306 306 306 306 306 306 305 303 303 302 302 302 302 302 302 302 302 302 302 302 302 304 305 307 308 309 310 309 311 314 316 318 320 321 320 321 324
309 307 307 307 306 305 306 306 306 306 305 306 305 305 304 303 302 303 303 302 302 302 302 301 302 302 301 301 302 301 301 303 303 303 304 305 305 307 309 310 313 315 315 316
308 307 306 306 307 305 305 305 305 306 306 306 305 304 304 303 303 303 303 302 302 302 302 301 301 301 301 300 300 301 301 299 300 301 301 301 301 302 303 304 305 306 307 308
306 305 306 307 306 304 304 304 304 305 305 305 305 305 305 304 304 303 303 303 303 302 302 301 301 301 300 300 300 299 300 299 299 297 298 299 299 298 297 297 297 298 299 300
306 305 305 306 305 304 303 304 304 303 304 305 305 305 305 304 304 304 303 303 303 303 302 302 301 300 301 300 300 299 299 299 299 299 298 298 297 296 296 297 297 297 297 296

GFSNGP_850_thetae_072.txt.gz
Theta_e
310 312 313 313 313 312 311 312 314 313 312 313 315 317 332 336 341 342 344 345 345 345 342 340 341 338 348 348 350 349 349 349 348 346 346 346 345 334 327 330 341 343 342 348
312 313 312 312 312 313 313 313 313 313 314 323 325 333 335 336 338 338 338 339 340 344 346 345 343 342 339 350 350 349 350 350 350 349 348 347 347 347 343 330 328 331 340 337
311 312 311 310 310 312 312 312 319 324 321 321 322 326 324 327 333 336 337 335 335 335 343 345 347 346 345 344 351 350 353 353 352 351 350 350 349 349 349 348 340 330 329 331
308 310 313 309 309 311 314 319 318 319 319 319 319 322 322 324 327 329 332 335 332 333 333 339 344 345 346 344 346 348 350 351 355 355 354 353 353 352 351 349 349 345 337 332
309 310 310 311 310 310 316 317 316 316 316 316 317 324 321 321 322 324 328 331 330 330 331 331 333 344 346 346 346 346 344 349 353 356 356 355 355 354 353 352 350 349 347 343
309 309 312 310 314 314 314 317 314 314 314 314 315 319 318 319 321 321 326 326 326 327 327 327 331 337 346 346 345 343 352 353 353 351 354 355 355 355 354 353 351 348 349 349
309 311 312 311 311 314 314 312 311 312 312 313 313 315 316 318 320 321 322 324 324 324 325 327 328 332 343 345 342 340 344 348 349 348 354 355 355 354 353 353 353 352 351 348
308 309 312 308 312 313 310 309 309 309 309 310 311 315 316 317 319 320 320 320 323 323 323 323 326 330 334 342 343 341 341 338 345 350 354 357 356 355 353 353 353 353 353 352
309 314 308 309 308 307 306 306 306 306 307 308 309 311 314 317 318 317 319 318 320 321 321 321 321 326 333 336 338 342 340 337 340 350 353 356 357 356 354 354 353 353 354 353
304 306 306 306 305 304 305 304 304 305 305 307 308 310 311 314 316 316 316 317 320 321 320 320 319 321 324 333 337 338 341 339 338 346 351 357 356 357 355 354 354 354 354 354
305 304 305 305 306 304 305 304 304 305 305 306 307 309 311 312 313 315 315 316 319 320 320 319 318 321 321 325 333 335 337 342 342 351 350 355 357 358 358 357 356 355 355 354
301 304 305 304 304 304 304 304 304 303 304 306 306 307 309 310 312 312 315 316 317 318 319 318 317 318 321 321 326 333 336 341 348 355 355 352 356 358 357 359 358 357 357 357
305 305 304 305 305 304 304 305 304 303 304 305 306 306 307 308 311 312 314 315 316 317 318 319 317 316 316 318 322 328 333 337 346 355 360 358 359 358 360 360 360 360 359 358
306 306 306 306 306 306 305 304 305 303 303 305 306 307 310 312 313 314 316 316 316 317 317 318 318 316 316 317 320 326 332 337 340 346 355 361 361 363 360 360 361 361 362 360
310 308 308 308 307 307 306 306 305 304 302 304 306 308 310 310 311 312 313 313 315 314 315 315 315 316 317 317 318 323 330 335 340 344 350 355 360 360 359 358 358 358 359 361
309 309 308 307 307 307 307 307 305 304 302 302 302 305 307 307 307 308 309 309 311 311 311 312 313 315 316 317 317 321 328 332 336 341 347 351 354 357 355 353 354 356 356 356
310 309 309 308 308 308 308 307 306 305 303 302 301 302 304 305 305 305 305 306 307 308 308 309 310 312 313 315 317 319 326 330 333 338 343 350 352 353 354 355 353 354 355 357
311 309 309 309 309 307 307 307 306 305 305 304 302 302 302 303 303 304 304 304 304 305 308 309 309 311 312 313 316 319 322 326 329 333 339 343 345 346 351 353 354 355 357 359
311 310 309 309 308 307 306 307 307 306 305 305 304 303 302 302 303 303 303 303 303 303 304 305 307 311 312 313 316 319 321 322 325 329 334 339 344 345 348 352 352 356 355 354
310 309 309 308 307 306 306 307 306 306 306 306 305 304 303 301 302 302 302 302 302 303 302 302 304 306 309 312 315 316 319 320 323 325 326 330 332 339 339 338 338 347 348 344
310 309 308 308 307 306 306 306 306 306 306 307 305 305 304 302 301 301 302 302 302 302 303 302 302 303 303 309 313 314 316 318 318 321 323 324 325 324 325 326 334 330 337 339
308 308 308 308 307 307 306 306 306 306 306 306 305 303 303 302 302 302 302 302 301 301 301 302 301 301 302 303 308 309 313 312 316 317 320 321 324 320 321 319 318 321 319 327
308 307 307 307 307 306 306 306 306 306 306 306 305 303 303 303 303 303 302 302 302 302 302 301 301 300 300 300 302 303 304 306 307 312 313 315 317 319 322 321 320 322 319 317
307 307 307 306 305 306 306 306 305 306 306 305 304 304 303 303 303 303 303 303 302 301 301 301 300 300 299 299 298 298 300 299 305 306 306 308 308 311 313 314 316 317 318 317
307 306 306 306 306 305 305 306 305 305 305 306 304 304 304 303 303 303 303 302 302 301 301 302 300 299 299 299 298 298 297 297 298 300 301 303 304 305 306 307 307 308 309 309
305 305 306 305 304 304 305 305 304 305 305 305 305 304 305 304 304 304 303 303 302 301 301 300 300 300 299 299 298 298 298 297 297 296 297 298 298 298 299 299 300 300 301 302
305 305 305 305 304 304 304 303 303 304 305 305 305 305 304 304 304 303 303 302 302 302 301 301 300 300 300 299 299 298 298 298 297 297 296 296 295 295 296 297 298 298 297 297

GFSNGP_850_thetae_075.txt.gz
Theta_e
309 311 312 312 312 312 310 311 312 312 311 322 322 326 326 331 336 338 338 340 342 344 344 342 342 339 340 345 347 347 347 346 346 346 345 345 345 344 340 327 333 341 345 347
310 311 310 311 310 311 311 311 312 314 317 319 320 323 323 325 329 332 335 334 334 335 342 345 345 343 343 341 343 347 347 348 348 347 347 346 346 346 345 344 329 328 338 343
310 310 309 307 309 310 311 316 315 319 320 318 318 321 321 321 323 325 330 332 331 332 333 339 343 345 345 343 341 346 348 348 349 349 349 349 348 347 346 346 345 341 328 329
307 308 311 306 308 311 318 318 317 317 316 316 316 320 319 320 321 324 329 328 327 327 328 330 334 340 345 345 344 344 349 350 351 350 350 350 350 350 349 348 347 347 346 341
308 307 307 310 311 312 315 316 314 314 314 313 312 317 320 318 320 321 324 324 324 325 325 326 329 336 340 344 345 343 346 351 349 351 352 353 353 353 353 352 351 350 349 348
306 306 311 309 312 311 312 315 313 312 312 312 312 317 318 315 318 320 321 321 321 321 323 324 325 330 336 343 345 346 347 348 347 349 352 355 356 356 355 354 353 353 352 351
306 306 309 310 309 311 312 311 310 309 309 308 310 312 311 314 316 319 320 320 320 319 320 321 321 324 330 335 341 342 343 340 348 350 349 352 353 353 354 354 354 354 353 353
309 307 309 308 310 312 308 307 307 307 306 306 306 308 309 309 313 317 317 317 318 318 318 319 320 321 323 328 333 337 341 342 341 346 346 345 347 348 352 354 354 354 354 354
307 306 309 308 308 308 307 305 305 304 304 304 305 306 307 308 309 311 316 316 316 317 318 319 319 320 322 322 325 331 335 338 341 340 340 341 343 345 353 354 356 356 355 354
303 303 305 305 304 305 305 304 304 304 303 304 305 305 307 307 309 310 311 314 315 315 318 319 319 320 319 322 323 324 329 333 335 340 340 339 345 345 351 352 353 355 356 355
300 302 304 305 305 305 304 304 304 303 303 303 303 304 305 306 307 309 310 312 314 315 316 318 319 319 320 321 320 322 325 329 332 336 343 341 350 348 350 348 351 352 355 355
302 303 304 305 305 305 304 304 304 304 305 304 304 304 304 306 306 307 308 311 312 314 316 316 319 319 319 321 321 321 323 325 329 332 339 348 352 351 352 351 351 353 355 355
305 305 305 306 306 306 305 305 305 304 304 304 303 304 305 305 305 306 307 309 312 314 315 316 316 318 319 318 319 320 320 323 326 331 336 343 350 354 350 349 351 353 354 353
306 305 305 305 306 307 307 306 306 306 304 304 303 304 306 307 308 310 310 311 312 313 314 316 316 316 318 319 318 318 318 319 325 330 334 338 345 354 357 357 359 358 355 356
308 308 308 308 308 307 307 307 307 306 304 303 302 302 305 307 310 311 312 313 314 313 314 314 315 316 315 316 317 318 317 318 323 329 333 336 342 347 353 360 357 356 360 359
308 308 308 308 307 307 307 307 307 306 305 304 302 302 302 305 305 307 308 309 311 311 311 311 313 313 314 315 316 317 317 318 321 328 331 335 336 341 348 354 359 358 357 355
309 309 309 309 308 308 307 307 307 306 305 304 303 302 302 302 302 303 304 305 306 307 307 308 310 312 312 312 313 315 316 317 322 327 329 334 337 339 346 351 354 356 354 351
310 310 309 307 308 308 307 306 306 306 306 305 304 303 302 301 301 301 301 302 304 304 304 305 307 309 313 313 312 313 316 318 320 323 326 331 335 337 341 343 346 349 352 354
310 310 310 309 309 308 307 306 306 306 306 306 305 304 302 301 301 301 301 301 302 303 302 303 304 306 309 311 313 313 316 319 320 321 324 329 332 334 338 339 342 344 347 351
310 309 309 309 309 308 306 305 306 306 306 306 305 305 302 301 301 301 301 301 301 302 302 301 301 303 305 308 310 311 313 317 318 322 324 325 326 331 332 337 342 345 347 345
309 309 308 308 308 307 306 306 306 306 306 306 305 303 302 301 301 301 301 301 301 301 301 301 300 301 301 304 307 309 311 313 316 319 320 322 321 323 324 326 333 337 340 342
308 308 307 308 307 307 306 306 306 305 306 306 303 302 302 302 302 302 301 302 301 301 300 300 300 299 300 302 303 304 307 308 311 314 315 317 317 316 317 318 322 324 324 326
308 307 307 307 306 307 306 306 306 306 305 306 304 302 303 303 303 303 303 302 302 301 300 300 299 299 299 300 300 301 302 303 304 308 309 309 309 309 312 312 315 318 318 318
307 307 307 307 306 305 306 306 305 305 305 305 303 305 304 303 303 303 302 302 301 301 300 299 299 299 299 299 300 299 299 300 300 302 303 305 307 303 306 306 310 308 311 312
306 307 307 306 306 305 305 305 305 305 305 304 304 304 304 304 304 303 302 301 301 301 300 299 299 299 298 298 298 298 298 298 299 299 300 301 301 298 301 303 302 304 303 304
305 306 305 306 305 304 305 305 305 305 304 304 305 303 304 304 303 303 302 302 301 301 300 299 299 299 299 298 298 297 297 296 295 295 298 298 298 297 298 297 298 297 299 300
305 305 305 305 304 304 304 305 305 305 304 304 304 304 304 303 303 302 302 302 301 301 300 300 299 299 299 298 298 298 297 296 295 294 294 293 294 293 294 295 297 296 298 296